This is the latest recevied weather packets stored in our database for station/object M0UPS-13. If no packets are shown the sender has not sent any weather packets the latest 10 day(s).
| Time | Temp. | Humidity | Pressure | Rain* | Wind** | Luminosity | Snow |
|---|---|---|---|---|---|---|---|
| 1777649702 | 23.33° C | 54% | 1019.2 hPa | 0 mm | - | 357 W/m² | - |
| 1777649402 | 23.89° C | 53% | 1019.2 hPa | 0 mm | - | 342 W/m² | - |
| 1777648802 | 24.44° C | 51% | 1019.4 hPa | 0 mm | - | 392 W/m² | - |
| 1777648502 | 23.89° C | 51% | 1019.2 hPa | 0 mm | - | 398 W/m² | - |
| 1777648203 | 23.89° C | 50% | 1019.3 hPa | 0 mm | - | 416 W/m² | - |
| 1777647902 | 23.33° C | 51% | 1019.4 hPa | 0 mm | - | 432 W/m² | - |
| 1777647602 | 23.89° C | 50% | 1019.5 hPa | 0 mm | - | 467 W/m² | - |
| 1777647302 | 24.44° C | 49% | 1019.3 hPa | 0 mm | - | 457 W/m² | - |
| 1777647003 | 24.44° C | 49% | 1019.5 hPa | 0 mm | - | 353 W/m² | - |
| 1777646702 | 23.89° C | 48% | 1019.2 hPa | 0 mm | - | 472 W/m² | - |
| 1777646402 | 25° C | 46% | 1019.5 hPa | 0 mm | - | 500 W/m² | - |
| 1777646102 | 24.44° C | 48% | 1019.6 hPa | 0 mm | - | 504 W/m² | - |
| 1777645802 | 25° C | 46% | 1019.6 hPa | 0 mm | - | 510 W/m² | - |
| 1777645502 | 24.44° C | 48% | 1019.6 hPa | 0 mm | - | 529 W/m² | - |
| 1777645202 | 24.44° C | 47% | 1019.4 hPa | 0 mm | - | 136 W/m² | - |
| 1777644902 | 24.44° C | 45% | 1019.4 hPa | 0 mm | - | 543 W/m² | - |
| 1777644602 | 25° C | 46% | 1019.4 hPa | 0 mm | - | 559 W/m² | - |
| 1777644302 | 24.44° C | 46% | 1019.5 hPa | 0 mm | - | 565 W/m² | - |
| 1777644002 | 24.44° C | 44% | 1019.5 hPa | 0 mm | - | 573 W/m² | - |
| 1777643702 | 24.44° C | 44% | 1019.5 hPa | 0 mm | - | 585 W/m² | - |
| 1777643402 | 25° C | 43% | 1019.7 hPa | 0 mm | - | 596 W/m² | - |
| 1777643102 | 25° C | 42% | 1019.5 hPa | 0 mm | - | 612 W/m² | - |
| 1777642802 | 24.44° C | 42% | 1019.7 hPa | 0 mm | - | 611 W/m² | - |
| 1777642502 | 25° C | 41% | 1019.7 hPa | 0 mm | - | 609 W/m² | - |
| 1777642202 | 24.44° C | 40% | 1019.5 hPa | 0 mm | - | 619 W/m² | - |
* Rain latest hour (hover to see other rain measurements)
** Current wind speed in m/s (hover to see current wind gust speed)